ONEWEB-0617, 55158

Orbit data source: Space-Track

ONEWEB-0617, 55158 is a payload satellite owned by One Web (NAA) (UK) in LEO that was launched on Tue, 10 Jan 2023 UTC via an FALCON 9 launch vehicle from the Air Force Eastern Test Range (AFETR). Payload-class satellites include a variety of spacecraft equipped with specific instruments for various scientific and technological missions. These include communications satellites like Starlink; space stations such as the ISS; scientific satellites like the Hubble; Earth observation satellites from companies like Planet Labs, Umbra, and HawkEye 360; GPS; miniature CubeSats for education and research; and military/defense satellites.

Loading next visibility...
Identifier
55158, 2023-004U
Orbit
LEO
Country
Flag of UKUK
Related business
Manufacturer
One Web
Mission
Operational Commercial Communications
Bus & Motor
ARROW, Unknown motor
Mass
148 kg wet, ~140 kg dry
Launch date (UTC)
2023-01-10 (3 years ago)
Launch vehicle
FALCON 9
Launch site
Air Force Eastern Test Range (AFETR)
Object type
Payload
Rocket body
Debris
Shape & HBR
Trap Box + 2 Pan, 6.7 m
Radar Cross Section
3.464 m², Large (>1 m²)

Expand to show TLE details & history
Last TLE update: 2 days ago

TLE from 2 days ago
0 ONEWEB-0617
1 55158U 23004U   26171.27148058  .00000428  00000-0  11716-2 0  9997
2 55158  87.8888  20.4546 0002235  84.5653 275.5729 13.11414893166260
Epoch: 2026-06-20T06:30Z
TLE epoch observation values (Epoch: 2026-06-20T06:30:55.922Z)
Latitude
-0.00009°
Longitude
14.23309°
Altitude
1,220.415 km
Speed
7.244 km/s
True Right ascension
01h 21m 49s
True Declination
0° 00' 00"
Sunlit
Object was in daylight at epoch
Visualization orbit readout
Latitude
Unknown
Longitude
Unknown
Altitude
Unknown
Speed
Unknown
Apparent Right ascension
Unknown
Apparent Declination
Unknown
Sunlit
N/A
Visualization observer readout
Local Sidereal Time
21:30:03
Azimuth
Unknown
Elevation
Unknown
Doppler factor
Unknown
Orbital elements
Apogee altitude
1,216.506 km
Perigee altitude
1,213.112 km
Semi-major axis
7,592.946 km
Eccentricity
0.00022
Inclination
87.8888°
RAAN
20.4546°
Arg. of periapsis
84.5653°
True anomaly
275.54741°
Mean anomaly
275.5729°
Eccentric anomaly
275.56015°
Mean motion
3.28041 °/min
Orbital period
109.74 mins
BSTAR
0.0011716
Loading maneuver chart data...
Computing Atmospheric mass density...
Loading historical data...
Loading historical data...
Loading historical data...
Loading historical data...
Loading historical data...
Loading historical data...
Loading historical data...

Documentation

Showing up to 5 results
|